| time (UTC) | temp F | wind direction | speed knots | gust knots | rain 1hr in | rain 24hr in | rain mn in | humidity % | barometer mb |
| 20260510120028 | 56 | 161 | 0.0 | 0.9 | 0.00 | 0.00 | 0.00 | 92 | 1013.3 |
| 20260510114502 | 55 | 166 | 0.0 | 0.9 | 0.00 | 0.00 | 0.00 | 93 | 1013.1 |
| 20260510113005 | 54 | 313 | 0.0 | 0.9 | 0.00 | 0.00 | 0.00 | 95 | 1013.0 |
| 20260510111503 | 53 | 299 | 0.0 | 0.0 | 0.00 | 0.00 | 0.00 | 94 | 1012.8 |
| 20260510110003 | 53 | 11 | 0.0 | 0.9 | 0.00 | 0.00 | 0.00 | 94 | 1012.5 |
| 20260510104502 | 53 | 105 | 0.0 | 0.0 | 0.00 | 0.00 | 0.00 | 94 | 1012.2 |
| 20260510103003 | 53 | 98 | 0.0 | 0.0 | 0.00 | 0.00 | 0.00 | 94 | 1012.0 |
| 20260510101503 | 52 | 263 | 0.0 | 0.0 | 0.00 | 0.00 | 0.00 | 93 | 1011.9 |
| 20260510100005 | 52 | 303 | 0.0 | 1.7 | 0.00 | 0.00 | 0.00 | 93 | 1011.7 |
| 20260510094503 | 52 | 346 | 0.0 | 0.0 | 0.00 | 0.00 | 0.00 | 93 | 1011.6 |
| 20260510093003 | 52 | 346 | 0.0 | 1.7 | 0.00 | 0.00 | 0.00 | 92 | 1011.5 |
| 20260510091503 | 53 | 346 | 0.0 | 0.9 | 0.00 | 0.00 | 0.00 | 92 | 1011.6 |
| 20260510090010 | 53 | 346 | 0.0 | 1.7 | 0.00 | 0.00 | 0.00 | 93 | 1011.5 |
| 20260510084504 | 54 | 346 | 0.0 | 1.7 | 0.00 | 0.00 | 0.00 | 92 | 1011.4 |
| 20260510083005 | 54 | 346 | 0.0 | 1.7 | 0.00 | 0.00 | 0.00 | 92 | 1011.4 |
| 20260510081510 | 54 | 346 | 0.0 | 0.9 | 0.00 | 0.00 | 0.00 | 92 | 1011.4 |
| 20260510080004 | 54 | 346 | 0.0 | 0.0 | 0.00 | 0.00 | 0.00 | 91 | 1011.1 |
| 20260510074504 | 54 | 346 | 0.0 | 0.9 | 0.00 | 0.00 | 0.00 | 91 | 1011.0 |
| 20260510073005 | 55 | 346 | 0.0 | 1.7 | 0.00 | 0.00 | 0.00 | 91 | 1010.8 |
| 20260510071505 | 55 | 346 | 0.0 | 3.5 | 0.00 | 0.00 | 0.00 | 90 | 1010.7 |
| 20260510070007 | 55 | 279 | 0.0 | 1.7 | 0.00 | 0.00 | 0.00 | 90 | 1010.7 |
| 20260510064505 | 56 | 279 | 0.0 | 0.0 | 0.00 | 0.00 | 0.00 | 89 | 1010.4 |
| 20260510063004 | 56 | 279 | 0.0 | 0.0 | 0.00 | 0.00 | 0.00 | 89 | 1010.5 |
| 20260510061511 | 56 | 279 | 0.0 | 1.7 | 0.00 | 0.00 | 0.00 | 88 | 1010.4 |
| 20260510060006 | 56 | 279 | 0.0 | 1.7 | 0.00 | 0.00 | 0.00 | 87 | 1010.4 |
| 20260510054514 | 57 | 279 | 0.9 | 1.7 | 0.00 | 0.00 | 0.00 | 87 | 1010.4 |
| 20260510053005 | 57 | 279 | 0.0 | 0.0 | 0.00 | 0.00 | 0.00 | 86 | 1010.6 |
| 20260510051516 | 57 | 279 | 0.0 | 1.7 | 0.00 | 0.00 | 0.00 | 85 | 1010.5 |
| 20260510050005 | 57 | 279 | 0.9 | 1.7 | 0.00 | 0.00 | 0.00 | 85 | 1010.5 |
| 20260510044507 | 58 | 279 | 0.9 | 1.7 | 0.00 | 0.00 | 0.00 | 85 | 1010.5 |
| 20260510043004 | 58 | 279 | 0.0 | 0.9 | 0.00 | 0.00 | 0.00 | 86 | 1010.4 |
| 20260510041505 | 58 | 279 | 0.0 | 1.7 | 0.00 | 0.00 | 0.00 | 84 | 1010.4 |
| 20260510040010 | 59 | 279 | 0.0 | 0.9 | 0.00 | 0.00 | 0.00 | 82 | 1010.5 |
| 20260510034508 | 59 | 279 | 0.0 | 0.9 | 0.00 | 0.00 | 0.00 | 83 | 1010.4 |
| 20260510033007 | 59 | 279 | 0.0 | 0.0 | 0.00 | 0.00 | 0.00 | 82 | 1010.2 |
| 20260510031505 | 59 | 279 | 0.0 | 0.0 | 0.00 | 0.00 | 0.00 | 81 | 1010.0 |
| 20260510030003 | 60 | 279 | 0.0 | 0.9 | 0.00 | 0.00 | 0.00 | 78 | 1010.0 |
| 20260510024512 | 61 | 279 | 0.0 | 0.0 | 0.00 | 0.00 | 0.00 | 78 | 1009.9 |
| 20260510023012 | 61 | 279 | 0.0 | 0.0 | 0.00 | 0.00 | 0.00 | 76 | 1009.8 |
| 20260510021514 | 62 | 279 | 0.0 | 0.0 | 0.00 | 0.00 | 0.00 | 74 | 1009.8 |
| 20260510020005 | 62 | 279 | 0.0 | 0.0 | 0.00 | 0.00 | 0.00 | 72 | 1009.5 |
| 20260510014507 | 63 | 279 | 0.0 | 0.9 | 0.00 | 0.00 | 0.00 | 72 | 1009.4 |
| 20260510013007 | 64 | 279 | 0.0 | 0.0 | 0.00 | 0.00 | 0.00 | 70 | 1009.1 |
| 20260510011520 | 65 | 279 | 0.0 | 0.0 | 0.00 | 0.00 | 0.00 | 67 | 1008.9 |
| 20260510010004 | 67 | 279 | 0.0 | 0.0 | 0.00 | 0.00 | 0.00 | 64 | 1008.8 |
| 20260510004506 | 68 | 279 | 0.0 | 0.0 | 0.00 | 0.00 | 0.00 | 62 | 1008.7 |
| 20260510003014 | 70 | 133 | 0.0 | 0.0 | 0.00 | 0.00 | 0.00 | 57 | 1008.5 |
| 20260510001508 | 71 | 75 | 0.0 | 0.9 | 0.00 | 0.00 | 0.00 | 55 | 1008.4 |
| 20260510000014 | 72 | 234 | 0.9 | 2.6 | 0.00 | 0.00 | 0.00 | 54 | 1008.3 |
| 20260509234508 | 72 | 140 | 1.7 | 5.2 | 0.00 | 0.00 | 0.00 | 52 | 1008.1 |
| 20260509233011 | 73 | 258 | 0.9 | 5.2 | 0.00 | 0.00 | 0.00 | 54 | 1008.0 |
| 20260509231503 | 74 | 128 | 1.7 | 7.8 | 0.00 | 0.00 | 0.00 | 50 | 1008.0 |
| 20260509230003 | 74 | 196 | 0.0 | 1.7 | 0.00 | 0.00 | 0.00 | 52 | 1008.0 |
| 20260509224502 | 74 | 125 | 0.0 | 3.5 | 0.00 | 0.00 | 0.00 | 52 | 1007.9 |
| 20260509223010 | 73 | 136 | 1.7 | 6.1 | 0.00 | 0.00 | 0.00 | 52 | 1008.0 |
| 20260509221503 | 74 | 113 | 2.6 | 12.2 | 0.00 | 0.00 | 0.00 | 52 | 1008.0 |
| 20260509220003 | 74 | 137 | 3.5 | 11.3 | 0.00 | 0.00 | 0.00 | 48 | 1008.0 |
| 20260509214505 | 74 | 143 | 4.3 | 9.6 | 0.00 | 0.00 | 0.00 | 49 | 1008.0 |
| 20260509213003 | 73 | 153 | 6.1 | 12.2 | 0.00 | 0.00 | 0.00 | 48 | 1008.0 |
| 20260509211502 | 73 | 188 | 5.2 | 12.2 | 0.00 | 0.00 | 0.00 | 49 | 1007.8 |
| 20260509210008 | 74 | 145 | 6.1 | 13.0 | 0.00 | 0.00 | 0.00 | 48 | 1007.7 |
| 20260509204503 | 74 | 146 | 7.0 | 14.8 | 0.00 | 0.00 | 0.00 | 48 | 1007.7 |
| 20260509203003 | 73 | 136 | 6.1 | 12.2 | 0.00 | 0.00 | 0.00 | 51 | 1007.7 |
| 20260509201503 | 73 | 151 | 3.5 | 12.2 | 0.00 | 0.00 | 0.00 | 52 | 1007.6 |
| 20260509200004 | 73 | 132 | 5.2 | 10.4 | 0.00 | 0.00 | 0.00 | 51 | 1007.7 |
| 20260509194504 | 73 | 158 | 5.2 | 11.3 | 0.00 | 0.00 | 0.00 | 54 | 1008.1 |
| 20260509193004 | 72 | 162 | 6.1 | 12.2 | 0.00 | 0.00 | 0.00 | 54 | 1008.3 |
| 20260509191510 | 72 | 167 | 6.1 | 13.0 | 0.00 | 0.00 | 0.00 | 54 | 1008.5 |
| 20260509190014 | 72 | 112 | 2.6 | 13.0 | 0.00 | 0.00 | 0.00 | 56 | 1008.7 |
| 20260509184508 | 72 | 168 | 7.0 | 16.5 | 0.00 | 0.00 | 0.00 | 54 | 1008.8 |
| 20260509183005 | 71 | 155 | 10.4 | 17.4 | 0.00 | 0.00 | 0.00 | 54 | 1009.0 |
| 20260509181503 | 70 | 199 | 4.3 | 11.3 | 0.00 | 0.00 | 0.00 | 59 | 1009.3 |
| 20260509180012 | 69 | 167 | 7.0 | 13.0 | 0.00 | 0.00 | 0.00 | 61 | 1009.4 |
| 20260509174517 | 69 | 167 | 6.1 | 10.4 | 0.00 | 0.00 | 0.00 | 62 | 1009.7 |
| 20260509173013 | 68 | 144 | 7.8 | 12.2 | 0.00 | 0.00 | 0.00 | 63 | 1009.6 |
| 20260509171503 | 68 | 149 | 5.2 | 12.2 | 0.00 | 0.00 | 0.00 | 63 | 1010.0 |
| 20260509170008 | 68 | 175 | 6.1 | 13.9 | 0.00 | 0.00 | 0.00 | 63 | 1010.0 |
| 20260509164504 | 67 | 134 | 5.2 | 13.9 | 0.00 | 0.00 | 0.00 | 65 | 1010.2 |
| 20260509163020 | 67 | 180 | 5.2 | 19.1 | 0.00 | 0.00 | 0.00 | 64 | 1010.2 |
| 20260509161522 | 67 | 156 | 8.7 | 14.8 | 0.00 | 0.00 | 0.00 | 62 | 1010.2 |
| 20260509160006 | 67 | 169 | 8.7 | 13.9 | 0.00 | 0.00 | 0.00 | 61 | 1010.3 |
| 20260509154512 | 67 | 165 | 7.8 | 13.9 | 0.00 | 0.00 | 0.00 | 63 | 1010.2 |
| 20260509153012 | 66 | 162 | 7.0 | 15.6 | 0.00 | 0.00 | 0.00 | 64 | 1010.4 |
| 20260509151507 | 65 | 132 | 7.8 | 16.5 | 0.00 | 0.00 | 0.00 | 64 | 1010.7 |
| 20260509150027 | 64 | 118 | 3.5 | 8.7 | 0.00 | 0.00 | 0.00 | 66 | 1010.6 |
| 20260509144514 | 63 | 131 | 6.1 | 9.6 | 0.00 | 0.00 | 0.00 | 65 | 1010.7 |
| 20260509143023 | 62 | 140 | 5.2 | 13.9 | 0.00 | 0.00 | 0.00 | 66 | 1011.0 |
| 20260509141513 | 62 | 163 | 6.1 | 11.3 | 0.00 | 0.00 | 0.00 | 67 | 1011.3 |
| 20260509140004 | 61 | 89 | 1.7 | 8.7 | 0.00 | 0.00 | 0.00 | 68 | 1011.3 |
| 20260509134508 | 61 | 126 | 5.2 | 12.2 | 0.00 | 0.00 | 0.00 | 70 | 1011.6 |
| 20260509133007 | 60 | 152 | 3.5 | 9.6 | 0.00 | 0.00 | 0.00 | 71 | 1011.7 |
| 20260509131506 | 59 | 167 | 2.6 | 6.1 | 0.00 | 0.00 | 0.00 | 72 | 1011.6 |
| 20260509130004 | 58 | 126 | 2.6 | 10.4 | 0.00 | 0.00 | 0.00 | 71 | 1011.7 |
| 20260509124503 | 57 | 155 | 2.6 | 7.8 | 0.00 | 0.00 | 0.00 | 72 | 1011.7 |
| 20260509123004 | 57 | 165 | 1.7 | 10.4 | 0.00 | 0.00 | 0.00 | 73 | 1011.7 |
| 20260509121523 | 57 | 155 | 4.3 | 9.6 | 0.00 | 0.00 | 0.00 | 72 | 1011.7 |